| time (UTC) | temp F | wind direction | speed MPH | gust MPH | rain 1hr in | rain 24hr in | rain mn in | humidity % | barometer mb |
| 20260903073036 | 52 | 111 | 5.0 | 19.0 | 0.00 | 0.46 | 0.43 | 68 | 1005.7 |
| 20260903071527 | 53 | 129 | 5.0 | 23.0 | 0.00 | 0.46 | 0.43 | 68 | 1005.5 |
| 20260903070025 | 53 | 216 | 5.0 | 18.0 | 0.00 | 0.46 | 0.43 | 65 | 1005.1 |
| 20260903064524 | 53 | 175 | 4.0 | 17.0 | 0.00 | 0.46 | 0.43 | 67 | 1004.7 |
| 20260903063024 | 53 | 104 | 6.0 | 23.0 | 0.00 | 0.46 | 0.43 | 65 | 1004.5 |
| 20260903061522 | 53 | 168 | 9.0 | 25.0 | 0.00 | 0.46 | 0.43 | 65 | 1004.1 |
| 20260903060018 | 53 | 198 | 5.0 | 20.0 | 0.00 | 0.46 | 0.43 | 65 | 1003.9 |
| 20260903054520 | 54 | 155 | 10.0 | 26.0 | 0.00 | 0.46 | 0.43 | 64 | 1003.5 |
| 20260903053017 | 54 | 69 | 5.0 | 18.0 | 0.00 | 0.46 | 0.43 | 64 | 1003.5 |
| 20260903051514 | 54 | 160 | 6.0 | 25.0 | 0.00 | 0.46 | 0.43 | 64 | 1003.0 |
| 20260903050018 | 54 | 60 | 8.0 | 23.0 | 0.00 | 0.46 | 0.43 | 64 | 1003.1 |
| 20260903044511 | 54 | 122 | 7.0 | 25.0 | 0.00 | 0.46 | 0.43 | 62 | 1002.9 |
| 20260903043013 | 54 | 87 | 6.0 | 31.0 | 0.00 | 0.46 | 0.43 | 66 | 1002.6 |
| 20260903041510 | 54 | 129 | 9.0 | 24.0 | 0.00 | 0.46 | 0.43 | 67 | 1002.6 |
| 20260903040011 | 57 | 167 | 8.0 | 23.0 | 0.00 | 0.46 | 0.43 | 58 | 1001.9 |
| 20260903034505 | 57 | 349 | 0.0 | 21.0 | 0.00 | 0.46 | 0.43 | 58 | 1001.5 |
| 20260903033003 | 55 | 111 | 6.0 | 17.0 | 0.00 | 0.46 | 0.43 | 61 | 1001.5 |
| 20260903031504 | 55 | 85 | 3.0 | 11.0 | 0.00 | 0.46 | 0.43 | 62 | 1001.4 |
| 20260903030004 | 55 | 112 | 3.0 | 12.0 | 0.00 | 0.46 | 0.43 | 63 | 1001.4 |
| 20260903024502 | 56 | 112 | 0.0 | 19.0 | 0.00 | 0.46 | 0.43 | 58 | 1001.4 |
| 20260903023105 | 57 | 153 | 8.0 | 30.0 | 0.00 | 0.46 | 0.43 | 52 | 1001.3 |
| 20260903021559 | 57 | 150 | 7.0 | 19.0 | 0.00 | 0.46 | 0.43 | 58 | 1001.1 |
| 20260903020058 | 57 | 180 | 9.0 | 24.0 | 0.00 | 0.46 | 0.43 | 58 | 1001.1 |
| 20260903014619 | 57 | 116 | 6.0 | 18.0 | 0.00 | 0.46 | 0.43 | 55 | 1000.8 |
| 20260903013102 | 57 | 69 | 8.0 | 20.0 | 0.00 | 0.46 | 0.43 | 54 | 1000.9 |
| 20260903011608 | 57 | 79 | 5.0 | 25.0 | 0.00 | 0.46 | 0.43 | 60 | 1000.8 |
| 20260903010053 | 58 | 136 | 3.0 | 16.0 | 0.00 | 0.46 | 0.43 | 60 | 1000.5 |
| 20260903004549 | 57 | 96 | 7.0 | 16.0 | 0.00 | 0.46 | 0.43 | 63 | 1000.3 |
| 20260903003051 | 57 | 97 | 7.0 | 16.0 | 0.00 | 0.46 | 0.43 | 64 | 1000.1 |
| 20260903001545 | 56 | 137 | 8.0 | 19.0 | 0.00 | 0.46 | 0.43 | 65 | 999.9 |
| 20260903000051 | 56 | 222 | 5.0 | 25.0 | 0.00 | 0.46 | 0.43 | 66 | 999.7 |
| 20260902234543 | 56 | 92 | 7.0 | 18.0 | 0.00 | 0.46 | 0.43 | 65 | 999.6 |
| 20260902233049 | 56 | 130 | 6.0 | 28.0 | 0.00 | 0.46 | 0.43 | 69 | 999.2 |
| 20260902231539 | 55 | 182 | 7.0 | 16.0 | 0.00 | 0.46 | 0.43 | 71 | 999.3 |
| 20260902230047 | 55 | 131 | 5.0 | 20.0 | 0.00 | 0.46 | 0.43 | 73 | 999.2 |
| 20260902224535 | 56 | 26 | 6.0 | 19.0 | 0.01 | 0.46 | 0.43 | 73 | 998.8 |
| 20260902223031 | 55 | 184 | 5.0 | 17.0 | 0.01 | 0.46 | 0.43 | 74 | 998.2 |
| 20260902221529 | 55 | 137 | 5.0 | 19.0 | 0.01 | 0.46 | 0.43 | 79 | 997.8 |
| 20260902220040 | 54 | 77 | 8.0 | 23.0 | 0.01 | 0.46 | 0.43 | 84 | 997.8 |
| 20260902214541 | 53 | 185 | 0.0 | 10.0 | 0.15 | 0.46 | 0.42 | 89 | 997.9 |
| 20260902213023 | 53 | 104 | 3.0 | 13.0 | 0.32 | 0.46 | 0.42 | 89 | 997.4 |
| 20260902211521 | 53 | 159 | 2.0 | 11.0 | 0.34 | 0.46 | 0.42 | 90 | 997.2 |
| 20260902210018 | 53 | 103 | 8.0 | 23.0 | 0.34 | 0.46 | 0.42 | 91 | 997.1 |
| 20260902204515 | 54 | 94 | 10.0 | 34.0 | 0.17 | 0.28 | 0.25 | 90 | 997.7 |
| 20260902203012 | 55 | 318 | 5.0 | 15.0 | 0.02 | 0.13 | 0.09 | 91 | 997.1 |
| 20260902201525 | 55 | 190 | 4.0 | 17.0 | 0.01 | 0.12 | 0.08 | 91 | 997.2 |
| 20260902200008 | 55 | 142 | 5.0 | 21.0 | 0.01 | 0.12 | 0.08 | 91 | 997.3 |
| 20260902194504 | 55 | 170 | 7.0 | 26.0 | 0.00 | 0.11 | 0.07 | 89 | 997.4 |
| 20260902193002 | 55 | 82 | 7.0 | 21.0 | 0.00 | 0.11 | 0.07 | 88 | 997.4 |
| 20260902191600 | 55 | 280 | 4.0 | 17.0 | 0.00 | 0.11 | 0.07 | 89 | 997.5 |
| 20260902190056 | 55 | 129 | 7.0 | 19.0 | 0.00 | 0.11 | 0.07 | 88 | 997.9 |
| 20260902184603 | 55 | 209 | 3.0 | 19.0 | 0.00 | 0.11 | 0.07 | 89 | 997.9 |
| 20260902183102 | 55 | 283 | 4.0 | 23.0 | 0.01 | 0.11 | 0.07 | 89 | 998.0 |
| 20260902181549 | 54 | 156 | 11.0 | 19.0 | 0.01 | 0.11 | 0.07 | 90 | 998.4 |
| 20260902180045 | 54 | 265 | 0.0 | 17.0 | 0.03 | 0.11 | 0.07 | 91 | 998.4 |
| 20260902174551 | 54 | 241 | 6.0 | 17.0 | 0.06 | 0.11 | 0.07 | 91 | 998.6 |
| 20260902173105 | 54 | 113 | 2.0 | 14.0 | 0.06 | 0.10 | 0.06 | 91 | 998.8 |
| 20260902171542 | 54 | 157 | 6.0 | 23.0 | 0.06 | 0.10 | 0.06 | 91 | 999.1 |
| 20260902170035 | 54 | 112 | 2.0 | 17.0 | 0.04 | 0.08 | 0.04 | 91 | 999.4 |
| 20260902164505 | 54 | 255 | 7.0 | 17.0 | 0.01 | 0.05 | 0.01 | 89 | 999.5 |
| 20260902163003 | 55 | 132 | 7.0 | 22.0 | 0.00 | 0.04 | 0.00 | 88 | 999.9 |
| 20260902161601 | 55 | 155 | 4.0 | 18.0 | 0.00 | 0.04 | 0.00 | 89 | 1000.3 |
| 20260902160105 | 54 | 159 | 3.0 | 20.0 | 0.00 | 0.04 | 0.00 | 89 | 1000.6 |
| 20260902154555 | 54 | 109 | 3.0 | 22.0 | 0.00 | 0.04 | 0.00 | 89 | 1000.8 |
| 20260902153053 | 54 | 343 | 6.0 | 21.0 | 0.00 | 0.04 | 0.00 | 89 | 1000.9 |
| 20260902151549 | 54 | 182 | 8.0 | 26.0 | 0.00 | 0.04 | 0.00 | 88 | 1001.3 |
| 20260902150047 | 54 | 265 | 3.0 | 15.0 | 0.00 | 0.04 | 0.00 | 89 | 1001.5 |
| 20260902144548 | 54 | 163 | 8.0 | 18.0 | 0.00 | 0.04 | 0.00 | 90 | 1001.4 |
| 20260902143041 | 54 | 129 | 5.0 | 15.0 | 0.00 | 0.04 | 0.00 | 89 | 1001.7 |
| 20260902141549 | 54 | 115 | 4.0 | 14.0 | 0.01 | 0.04 | 0.00 | 90 | 1001.9 |
| 20260902140036 | 53 | 226 | 0.0 | 9.0 | 0.01 | 0.04 | 0.00 | 90 | 1002.2 |
| 20260902134534 | 53 | 122 | 0.0 | 16.0 | 0.01 | 0.04 | 0.04 | 90 | 1002.6 |
| 20260902133040 | 53 | 140 | 0.0 | 12.0 | 0.02 | 0.04 | 0.04 | 90 | 1002.9 |
| 20260902131530 | 53 | 181 | 3.0 | 12.0 | 0.02 | 0.03 | 0.03 | 90 | 1003.0 |
| 20260902130028 | 53 | 94 | 3.0 | 10.0 | 0.02 | 0.03 | 0.03 | 91 | 1003.3 |
| 20260902124527 | 53 | 186 | 2.0 | 19.0 | 0.02 | 0.03 | 0.03 | 90 | 1003.7 |
| 20260902123023 | 53 | 188 | 4.0 | 12.0 | 0.02 | 0.02 | 0.02 | 90 | 1003.9 |
| 20260902121522 | 53 | 10 | 1.0 | 11.0 | 0.01 | 0.01 | 0.01 | 89 | 1004.1 |
| 20260902120025 | 53 | 107 | 2.0 | 9.0 | 0.01 | 0.01 | 0.01 | 89 | 1004.2 |
| 20260902114535 | 53 | 80 | 5.0 | 15.0 | 0.01 | 0.02 | 0.01 | 88 | 1004.4 |
| 20260902113021 | 54 | 154 | 2.0 | 12.0 | 0.00 | 0.02 | 0.00 | 85 | 1004.5 |
| 20260902111520 | 54 | 105 | 2.0 | 12.0 | 0.00 | 0.02 | 0.00 | 86 | 1004.7 |
| 20260902110019 | 54 | 157 | 3.0 | 12.0 | 0.00 | 0.02 | 0.00 | 85 | 1004.9 |
| 20260902104522 | 54 | 102 | 4.0 | 14.0 | 0.00 | 0.07 | 0.00 | 84 | 1005.0 |
| 20260902103022 | 54 | 177 | 3.0 | 12.0 | 0.00 | 0.07 | 0.00 | 85 | 1005.0 |
| 20260902101518 | 54 | 198 | 4.0 | 14.0 | 0.00 | 0.07 | 0.00 | 84 | 1005.1 |
| 20260902100017 | 54 | 222 | 1.0 | 11.0 | 0.00 | 0.07 | 0.00 | 83 | 1005.1 |
| 20260902094517 | 54 | 88 | 3.0 | 11.0 | 0.00 | 0.10 | 0.00 | 83 | 1004.9 |
| 20260902093016 | 54 | 182 | 2.0 | 11.0 | 0.00 | 0.10 | 0.00 | 84 | 1005.0 |
| 20260902091519 | 54 | 168 | 3.0 | 15.0 | 0.00 | 0.10 | 0.00 | 83 | 1004.9 |
| 20260902090018 | 54 | 95 | 2.0 | 9.0 | 0.00 | 0.10 | 0.00 | 83 | 1005.0 |
| 20260902084514 | 54 | 110 | 4.0 | 14.0 | 0.00 | 0.13 | 0.00 | 82 | 1005.2 |
| 20260902083012 | 54 | 193 | 3.0 | 14.0 | 0.00 | 0.13 | 0.00 | 82 | 1005.3 |
| 20260902081511 | 54 | 182 | 2.0 | 17.0 | 0.00 | 0.13 | 0.00 | 82 | 1005.2 |
| 20260902080010 | 54 | 234 | 2.0 | 16.0 | 0.00 | 0.13 | 0.00 | 82 | 1005.2 |
| 20260902074514 | 54 | 111 | 1.0 | 18.0 | 0.00 | 0.13 | 0.00 | 83 | 1005.2 |